Poughkeepsie, NY

2:41 PM EST on December 16, 2017 (GMT -0500)
Dutchess County

Weather History for KPOU - September, 2011

Change the Weather History Date:

Tuesday, September 20, 2011

  Actual Average Record
Temperature  
Mean Temperature 63 °F 61 °F  
Max Temperature 70 °F 74 °F 92 °F (1983)
Min Temperature 56 °F 49 °F 34 °F (1979)
Degree Days  
Heating Degree Days 2 5  
Month to date heating degree days 57 56  
Since 1 July heating degree days 58 73  
Cooling Degree Days 0 1  
Month to date cooling degree days 73 56  
Year to date cooling degree days 861 660  
Growing Degree Days 12 (Base 50)    
Moisture  
Dew Point 58 °F    
Average Humidity 87    
Maximum Humidity 93    
Minimum Humidity 73    
Precipitation  
Precipitation 0.16 in 0.14 in 1.16 in (1963)
Month to date precipitation 5.84 2.78  
Year to date precipitation 46.10 33.56  
Sea Level Pressure  
Sea Level Pressure 30.10 in    
Wind  
Wind Speed 2 mph (SSW)    
Max Wind Speed 9 mph    
Max Gust Speed 14 mph    
Visibility 9 miles    
Events Rain    
T = Trace of Precipitation, MM = Missing Value Source: NWS Daily Summary

Daily Weather History Graph

Daily Weather History Graph

Search for Another Location

Airport or City:

Trip Planner

Search our weather history database for the weather conditions in past years. The results will help you decide how hot, cold, wet, or windy it might be!

Date:

Astronomy

Sep. 20, 2011 Rise Set
Actual Time 6:40 AM EDT 6:56 PM EDT
Civil Twilight 6:12 AM EDT 7:24 PM EDT
Nautical Twilight 5:40 AM EDT 7:56 PM EDT
Astronomical Twilight 5:06 AM EDT 8:30 PM EDT
Moon 11:54 PM EDT (9/20) 2:22 PM EDT (9/20)
Length of Visible Light 13h 11m
Length of Day
12h 16m
Waning Gibbous, 49% of the Moon is Illuminated
Sep 20
Waning Gibbous
Sep 27
New
Oct 3
First Quarter
Oct 11
Full
Oct 19
Last Quarter

Hourly Weather History & Observations

Time (EDT) Temp. Dew Point Humidity Pressure Visibility Wind Dir Wind Speed Gust Speed Precip Events Conditions
12:53 AM 57.0 °F 51.1 °F 81% 30.12 in 10.0 mi South 3.5 mph - N/A   Clear
1:53 AM 55.9 °F 52.0 °F 87% 30.10 in 10.0 mi Calm Calm - N/A   Scattered Clouds
2:53 AM 57.0 °F 53.1 °F 87% 30.09 in 10.0 mi Calm Calm - 0.00 in   Mostly Cloudy
3:53 AM 57.0 °F 54.0 °F 89% 30.07 in 10.0 mi Calm Calm - 0.00 in Rain Light Rain
4:53 AM 57.0 °F 55.0 °F 93% 30.07 in 10.0 mi SE 3.5 mph - 0.00 in   Overcast
5:53 AM 57.9 °F 55.0 °F 90% 30.07 in 10.0 mi Calm Calm - 0.00 in Rain Light Rain
6:53 AM 57.9 °F 55.0 °F 90% 30.09 in 9.0 mi Calm Calm - 0.01 in Rain Light Rain
7:53 AM 57.9 °F 55.9 °F 93% 30.09 in 4.0 mi Calm Calm - 0.05 in Rain Rain
8:53 AM 59.0 °F 57.0 °F 93% 30.09 in 2.5 mi Calm Calm - 0.06 in Rain Rain
8:58 AM 57.2 °F 57.2 °F 100% 30.10 in 3.0 mi Calm Calm - 0.01 in Rain Light Rain
9:53 AM 60.1 °F 57.9 °F 93% 30.10 in 9.0 mi South 3.5 mph - 0.04 in Rain Light Rain
10:46 AM 60.8 °F 59.0 °F 94% 30.11 in 10.0 mi Calm Calm - 0.00 in   Overcast
10:53 AM 61.0 °F 59.0 °F 93% 30.10 in 10.0 mi Calm Calm - 0.00 in   Overcast
11:53 AM 63.0 °F 59.0 °F 87% 30.09 in 10.0 mi SSW 5.8 mph - N/A   Overcast
12:53 PM 64.0 °F 59.0 °F 84% 30.09 in 10.0 mi Calm Calm - N/A   Overcast
1:00 PM 64.4 °F 59.0 °F 83% 30.10 in 10.0 mi SW 4.6 mph - N/A   Overcast
1:53 PM 64.9 °F 59.0 °F 81% 30.09 in 10.0 mi SW 6.9 mph - N/A   Overcast
2:53 PM 66.0 °F 60.1 °F 81% 30.08 in 10.0 mi Variable 4.6 mph - N/A   Overcast
3:46 PM 69.8 °F 60.8 °F 73% 30.07 in 10.0 mi SW 6.9 mph - N/A   Mostly Cloudy
3:53 PM 69.1 °F 60.1 °F 73% 30.07 in 10.0 mi SW 6.9 mph - N/A   Partly Cloudy
4:53 PM 69.1 °F 61.0 °F 75% 30.07 in 10.0 mi SW 5.8 mph - N/A   Mostly Cloudy
5:25 PM 68.0 °F 60.8 °F 78% 30.09 in 10.0 mi Calm Calm - N/A   Overcast
5:41 PM 68.0 °F 60.8 °F 78% 30.08 in 10.0 mi Calm Calm - N/A   Overcast
5:53 PM 68.0 °F 61.0 °F 78% 30.08 in 10.0 mi Calm Calm - N/A   Overcast
6:53 PM 66.9 °F 63.0 °F 87% 30.09 in 10.0 mi South 3.5 mph - N/A   Overcast
7:53 PM 64.9 °F 62.1 °F 90% 30.11 in 10.0 mi Calm Calm - N/A   Overcast
8:53 PM 62.6 °F 60.8 °F 94% 30.13 in 8.0 mi Calm Calm - N/A   Mostly Cloudy
9:53 PM 64.0 °F 62.1 °F 93% 30.13 in 9.0 mi Calm Calm - N/A   Overcast
10:53 PM 64.0 °F 61.0 °F 90% 30.14 in 10.0 mi Calm Calm - N/A   Overcast
11:53 PM 63.0 °F 61.0 °F 93% 30.15 in 8.0 mi Calm Calm - N/A   Overcast